Location: Bishopstone
(51.0167°N, 1.9000°W)
Time: 20:08:02
(UTC+00:00)

ATLAS 2AS CENTAUR R/B - Pass Details

Date: 16 September 2019
Orbit: 919 x 1292 km, 63.6° (Epoch: 21 September)

Event Time Altitude Azimuth Distance (km) Brightness Sun altitude
Rises 20:08:42 0° 316° (NW) 4,221 7.2 -17.2°
Reaches altitude 10° 20:11:40 10° 311° (NW) 3,214 6.4 -17.6°
Maximum altitude 20:19:02 50° 240° (WSW) 1,466 3.6 -18.6°
Enters shadow 20:24:52 14° 170° (S) 2,651 4.4 -19.4°
